Погода в Антакье

Турция     36°12′09″N   36°09′37″E
темп.,
°C
ветер,
м/с
пор.,
м/с
влажн.,
%
обл.,
%
осадки,
мм/ч
давл.,
гПа
погр.,
м
25 февраля, чт
чт2500:00+9зсз01610 0.0 102022
03:00+8с11580 0.0 102022
06:00+8ссв11670 0.0 102022
09:00+10ссв12630 0.0 1021121
12:00+14всв216087 0.0 1022460
15:00+16всв115182 0.0 1020843
18:00+13с016231 0.0 102123
21:00+11зсз127015 0.0 102322
26 февраля, пт
пт2600:00+10зсз11710 0.0 102322
03:00+8с11690 0.0 102222
06:00+7с12640 0.0 102322
09:00+9св23620 0.0 1023126
12:00+14всв22550 0.0 1022555
15:00+16всв11480 0.0 1020811
18:00+13юв01620 0.0 102023
21:00+10з12650 0.0 102022
27 февраля, сб
сб2700:00+9зсз11550 0.0 102022
03:00+8с11550 0.0 101922
06:00+7ссз12620 0.0 101822
09:00+10ссв22660 0.0 1018144
12:00+14всв23550 0.0 1018577
15:00+17св11480 0.0 1016789
18:00+14с22590 0.0 101523
21:00+11з11650 0.0 101622
28 февраля, вс
вс2800:00+10з11680 0.0 101622
03:00+9ссз11670 0.0 101522
06:00+8ссз11690 0.0 101522
09:00+11ссв11630 0.0 1016135
12:00+15всв21530 0.0 1015561
15:00+17юз23460 0.0 10141353
18:00+13зюз47690 0.0 1013177
21:00+10з23740 0.0 101536
1 марта, пн
пн100:00+9з12770 0.0 101523
03:00+9зсз01844 0.0 101422
06:00+8с11890 0.2 101423
09:00+9ссв239450 3.4 1015200
12:00+9св4694100 6.2 1015283
15:00+9ссв1292100 9.8 1014249
18:00+10в018874 0.0 101448
21:00+9с128882 0.1 101547